COSMOS 2251 DEB

Satellite information

Favourite Embed

Satellite Type and Status

DEBRISIN ORBIT

Key statistics

Satellite COSMOS 2251 DEB at a glance.

Uptime

11650

Days in orbit

Revolutions

≈ 14.0

Per day

Orbit

LEO

Low Earth Orbit

Inclination

74.0

Latest

Satellite identification and parameters

Extended collection of information and parameters for COSMOS 2251 DEB.

Object identification

Identified? True

Debris? True

Object name: COSMOS 2251 DEB

International designator: 1993-036PU

Object number (NORAD): 34346

Object ID (CCSDS): 34346

Country: COMMONWEALTH OF INDEPENDENT STATES (CIS)

Current information (Y/N): Y

RCS size: SMALL

Orbital parameters

Period: 102.955 minutes

Inclination: 73.9962 deg

SMA: 7276.546 km

Apoapsis: 1051.939 km

Periapsis: 744.882 km

RAAN: 329.7532 deg

Eccentricy: 0.0210991

Argument of periapsis: 194.5481 deg

Mean anomaly: 317.9856 deg

Mean motion: 13.98668741 rev/day

Mean motion (dot): 0.00002463 rev/day2

B* drag term: 0.0014306 1/REarth

Two-line elements (TLE)

Creation date: May 9, 2025, 2:46 a.m.

Reference frame: TEME

Reference center: EARTH

Epoch: May 8, 2025, 11:30 p.m. UTC

TLE line 0: 0 COSMOS 2251 DEB

TLE line 1: 1 34346U 93036PU 25128.97964020 .00002463 00000-0 14306-2 0 9997

TLE line 2: 2 34346 73.9962 329.7532 0210991 194.5481 317.9856 13.98668741823648

Live tracking on map

Real-time ground track for satellite COSMOS 2251 DEB.

In-orbit conjunctions

A list of the most updated potential collisions computed for object COSMOS 2251 DEB.

Target Orbit TCA Probability of collision Miss distance Type
THORAD AGENA D DEB SSO 2024-11-13 04:26:51 0.0001735138 825.0 (m) DEBRIS
FENGYUN 1C DEB SSO 2024-11-10 18:01:44 0.0007551187 563.0 (m) DEBRIS
FENGYUN 1C DEB SSO 2024-09-19 10:20:07 0.0001439424 88.0 (m) DEBRIS

Associated space launch

Military communications satellite. Destroyed in a collision with Iridium 33.

COSMOS 2251 DEB was lifted into orbit during the mission ‘Kosmos-3M | Strela-2M 51’, on board a Kosmos-3M space rocket.

The launch took place on June 16, 1993, 4:17 a.m. from 132/1 (132L).

For more information about the launch, click the button.

Launch to space Kosmos-3M | Strela-2M 51
Kosmos-3M | Strela-2M 51

Agency: N/A

Status: Launch Successful

Launch date: June 16, 1993, 4:17 a.m. UTC

Rocket: Kosmos-3M

Launch pad: 132/1 (132L)

Location: Plesetsk Cosmodrome, Russian Federation

...

Latest news about this satellite

There are no fresh news available about this satellite. Check back as we update our databases every day.


Newsletter sign-up

Weekly statistics, charts and insights to help you stay on top of the space industry.